Weather History for KCBF - January, 2013

Change the Weather History Date:

Wednesday, January 16, 2013

  Actual Average Record
Temperature  
Mean Temperature 36 °F -  
Max Temperature 50 °F 31 °F 59 °F (2015)
Min Temperature 23 °F 16 °F -7 °F (2007)
Degree Days  
Heating Degree Days 28    
Moisture  
Dew Point 25 °F    
Average Humidity 68    
Maximum Humidity 93    
Minimum Humidity 50    
Precipitation  
Precipitation 0.00 in - - ()
Sea Level Pressure  
Sea Level Pressure 29.99 in    
Wind  
Wind Speed 12 mph (West)    
Max Wind Speed 17 mph    
Max Gust Speed 25 mph    
Visibility 10 miles    
Events      
Averages and records for this station are not official NWS values.
T = Trace of Precipitation, MM = Missing Value Source: NWS Daily Summary

Daily Weather History Graph

Daily Weather History Graph

Search for Another Location

Airport or City:

Trip Planner

Search our weather history database for the weather conditions in past years. The results will help you decide how hot, cold, wet, or windy it might be!

Date:

Astronomy

Jan. 16, 2013 Rise Set
Actual Time 7:45 AM CST 5:20 PM CST
Civil Twilight 7:15 AM CST 5:50 PM CST
Nautical Twilight 6:41 AM CST 6:24 PM CST
Astronomical Twilight 6:08 AM CST 6:57 PM CST
Moon 10:18 AM CST (1/16) 11:17 PM CST (1/16)
Length of Visible Light 10h 35m
Length of Day
9h 34m
Waxing Crescent, 28% of the Moon is Illuminated
Jan 16
Waxing Crescent
Jan 18
First Quarter
Jan 26
Full
Feb 3
Last Quarter
Feb 10
New

Hourly Weather History & Observations

Time (CST) Temp. Windchill Dew Point Humidity Pressure Visibility Wind Dir Wind Speed Gust Speed Precip Events Conditions
12:15 AM 23.0 °F 11.7 °F 15.8 °F 74% 30.03 in 10.0 mi SSW 11.5 mph - N/A   Clear
12:35 AM 23.0 °F 11.1 °F 15.8 °F 74% 30.01 in 10.0 mi SSW 12.7 mph - N/A   Clear
12:55 AM 23.0 °F 11.7 °F 15.8 °F 74% 30.01 in 10.0 mi SSW 11.5 mph - N/A   Clear
1:15 AM 23.0 °F 11.7 °F 15.8 °F 74% 30.00 in 10.0 mi SSW 11.5 mph - N/A   Clear
1:35 AM 23.0 °F 11.1 °F 15.8 °F 74% 29.99 in 10.0 mi SSW 12.7 mph - N/A   Clear
1:55 AM 23.0 °F 10.6 °F 15.8 °F 74% 29.98 in 10.0 mi SSW 13.8 mph - N/A   Clear
2:15 AM 23.0 °F 11.1 °F 15.8 °F 74% 29.97 in 10.0 mi SSW 12.7 mph - N/A   Clear
2:35 AM 23.0 °F 11.1 °F 15.8 °F 74% 29.97 in 10.0 mi SSW 12.7 mph - N/A   Clear
2:55 AM 23.0 °F 9.6 °F 15.8 °F 74% 29.96 in 10.0 mi SSW 16.1 mph - N/A   Clear
3:15 AM 23.0 °F 9.2 °F 15.8 °F 74% 29.95 in 10.0 mi SW 17.3 mph - N/A   Clear
3:35 AM 23.0 °F 10.6 °F 15.8 °F 74% 29.94 in 10.0 mi SSW 13.8 mph 19.6 mph N/A   Clear
3:55 AM 23.0 °F 10.6 °F 15.8 °F 74% 29.93 in 10.0 mi SSW 13.8 mph - N/A   Clear
4:15 AM 23.0 °F 10.1 °F 15.8 °F 74% 29.93 in 10.0 mi SW 15.0 mph - N/A   Mostly Cloudy
4:35 AM 23.0 °F 12.4 °F 17.6 °F 80% 29.92 in 10.0 mi SW 10.4 mph 17.3 mph N/A   Overcast
4:55 AM 23.0 °F 10.1 °F 17.6 °F 80% 29.91 in 10.0 mi SW 15.0 mph - N/A   Overcast
5:15 AM 24.8 °F 11.9 °F 17.6 °F 74% 29.89 in 10.0 mi SW 16.1 mph - N/A   Overcast
5:35 AM 24.8 °F 12.4 °F 17.6 °F 74% 29.89 in 10.0 mi SW 15.0 mph - N/A   Overcast
5:55 AM 24.8 °F 12.9 °F 17.6 °F 74% 29.90 in 10.0 mi SW 13.8 mph - N/A   Overcast
6:35 AM 24.8 °F 14.0 °F 17.6 °F 74% 29.90 in 10.0 mi SW 11.5 mph - N/A   Overcast
6:55 AM 26.6 °F 15.2 °F 17.6 °F 69% 29.91 in 10.0 mi SW 13.8 mph - N/A   Overcast
7:15 AM 26.6 °F 15.7 °F 17.6 °F 69% 29.92 in 10.0 mi SW 12.7 mph - N/A   Overcast
7:35 AM 26.6 °F 16.8 °F 19.4 °F 74% 29.92 in 10.0 mi WSW 10.4 mph - N/A   Overcast
7:55 AM 26.6 °F 16.8 °F 19.4 °F 74% 29.93 in 9.0 mi WSW 10.4 mph - N/A   Overcast
8:15 AM 26.6 °F 17.5 °F 19.4 °F 74% 29.93 in 10.0 mi SW 9.2 mph - N/A   Overcast
8:35 AM 28.4 °F 19.7 °F 21.2 °F 74% 29.94 in 10.0 mi WSW 9.2 mph - N/A   Overcast
8:55 AM 28.4 °F 21.2 °F 21.2 °F 74% 29.93 in 10.0 mi SW 6.9 mph - N/A   Scattered Clouds
9:15 AM 30.2 °F 22.6 °F 21.2 °F 69% 29.94 in 10.0 mi SW 8.1 mph - N/A   Clear
9:35 AM 32.0 °F 25.6 °F 23.0 °F 69% 29.94 in 10.0 mi SW 6.9 mph - N/A   Clear
9:55 AM 33.8 °F 27.0 °F 23.0 °F 65% 29.94 in 10.0 mi WSW 8.1 mph - N/A   Mostly Cloudy
10:15 AM 33.8 °F 26.4 °F 24.8 °F 70% 29.94 in 10.0 mi West 9.2 mph - N/A   Mostly Cloudy
10:35 AM 35.6 °F 28.6 °F 24.8 °F 65% 29.94 in 10.0 mi West 9.2 mph - N/A   Partly Cloudy
10:55 AM 39.2 °F 33.0 °F 26.6 °F 61% 29.94 in 10.0 mi West 9.2 mph - N/A   Clear
11:15 AM 41.0 °F 35.2 °F 28.4 °F 61% 29.94 in 10.0 mi West 9.2 mph - N/A   Clear
11:35 AM 42.8 °F 38.0 °F 30.2 °F 61% 29.93 in 10.0 mi WNW 8.1 mph 15.0 mph N/A   Clear
11:55 AM 44.6 °F 39.2 °F 30.2 °F 57% 29.94 in 10.0 mi NW 10.4 mph 17.3 mph N/A   Clear
12:15 PM 46.4 °F 41.1 °F 32.0 °F 57% 29.92 in 10.0 mi WNW 11.5 mph 17.3 mph N/A   Clear
12:35 PM 46.4 °F 40.7 °F 32.0 °F 57% 29.92 in 10.0 mi WNW 12.7 mph - N/A   Clear
12:55 PM 48.2 °F - 32.0 °F 54% 29.92 in 10.0 mi WNW 12.7 mph 19.6 mph N/A   Clear
1:15 PM 48.2 °F - 32.0 °F 54% 29.92 in 10.0 mi WNW 12.7 mph - N/A   Clear
1:35 PM 48.2 °F - 32.0 °F 54% 29.92 in 10.0 mi WNW 16.1 mph 21.9 mph N/A   Clear
1:55 PM 48.2 °F - 32.0 °F 54% 29.92 in 10.0 mi West 13.8 mph 21.9 mph N/A   Clear
2:15 PM 48.2 °F - 32.0 °F 54% 29.93 in 10.0 mi West 12.7 mph 18.4 mph N/A   Clear
2:35 PM 48.2 °F - 32.0 °F 54% 29.93 in 10.0 mi West 15.0 mph 20.7 mph N/A   Clear
2:55 PM 48.2 °F - 32.0 °F 54% 29.94 in 10.0 mi WNW 16.1 mph - N/A   Clear
3:15 PM 50.0 °F - 32.0 °F 50% 29.95 in 10.0 mi West 11.5 mph - N/A   Clear
3:35 PM 50.0 °F - 32.0 °F 50% 29.96 in 10.0 mi WNW 12.7 mph - N/A   Clear
3:55 PM 50.0 °F - 32.0 °F 50% 29.96 in 10.0 mi WNW 11.5 mph - N/A   Clear
4:35 PM 48.2 °F - 32.0 °F 54% 29.97 in 10.0 mi West 12.7 mph - N/A   Clear
4:55 PM 48.2 °F - 30.2 °F 50% 29.98 in 10.0 mi WNW 9.2 mph - N/A   Clear
5:15 PM 46.4 °F 41.1 °F 30.2 °F 53% 30.00 in 10.0 mi NW 11.5 mph - N/A   Clear
5:35 PM 46.4 °F 41.9 °F 28.4 °F 50% 30.02 in 10.0 mi NW 9.2 mph - N/A   Clear
5:55 PM 44.6 °F 38.8 °F 30.2 °F 57% 30.03 in 10.0 mi NW 11.5 mph - N/A   Clear
6:15 PM 44.6 °F 38.1 °F 30.2 °F 57% 30.04 in 10.0 mi NW 13.8 mph - N/A   Clear
6:35 PM 42.8 °F 36.6 °F 30.2 °F 61% 30.06 in 10.0 mi NNW 11.5 mph 25.3 mph N/A   Clear
6:55 PM 42.8 °F 36.2 °F 30.2 °F 61% 30.06 in 10.0 mi NNW 12.7 mph 20.7 mph N/A   Clear
7:15 PM 42.8 °F 35.4 °F 30.2 °F 61% 30.09 in 10.0 mi NNW 15.0 mph - N/A   Clear
7:35 PM 41.0 °F 32.8 °F 30.2 °F 65% 30.09 in 10.0 mi NNW 16.1 mph 23.0 mph N/A   Clear
7:55 PM 39.2 °F 32.0 °F 30.2 °F 70% 30.11 in 10.0 mi NW 11.5 mph - N/A   Mostly Cloudy
8:15 PM 39.2 °F 31.6 °F 30.2 °F 70% 30.12 in 10.0 mi NW 12.7 mph - N/A   Overcast
8:35 PM 39.2 °F 31.6 °F 32.0 °F 75% 30.13 in 10.0 mi NNW 12.7 mph - N/A   Overcast
8:55 PM 39.2 °F 30.8 °F 32.0 °F 75% 30.13 in 10.0 mi NNW 15.0 mph 23.0 mph N/A   Overcast
9:15 PM 39.2 °F 30.8 °F 32.0 °F 75% 30.14 in 10.0 mi NNW 15.0 mph 21.9 mph N/A   Overcast
9:35 PM 37.4 °F 30.3 °F 30.2 °F 75% 30.14 in 10.0 mi North 10.4 mph - N/A   Scattered Clouds
9:55 PM 37.4 °F 30.8 °F 30.2 °F 75% 30.15 in 10.0 mi NNW 9.2 mph - N/A   Clear
10:15 PM 35.6 °F 27.1 °F 30.2 °F 81% 30.17 in 10.0 mi NNW 12.7 mph - N/A   Clear
10:35 PM 35.6 °F 28.6 °F 30.2 °F 81% 30.18 in 10.0 mi NNW 9.2 mph 17.3 mph N/A   Clear
10:55 PM 35.6 °F 27.1 °F 30.2 °F 81% 30.19 in 10.0 mi North 12.7 mph 18.4 mph N/A   Clear
11:15 PM 33.8 °F 23.2 °F 30.2 °F 87% 30.19 in 10.0 mi North 17.3 mph - N/A   Clear
11:35 PM 32.0 °F 21.6 °F 30.2 °F 93% 30.21 in 10.0 mi North 15.0 mph 21.9 mph N/A   Clear
11:55 PM 32.0 °F 21.2 °F 28.4 °F 87% 30.22 in 10.0 mi North 16.1 mph - N/A   Partly Cloudy